Regional Weather Roundup
Issued by NWS

Home | Current Version | Previous Version | Text Only | Print | Product List | Glossary Off
Versions: 1 2 3 4 5 6 7 8 9 10 11 12 13 14 15 16 17 18 19 20 21 22 23 24 25 26 27 28 29 30 31 32 33 34 35 36 37 38 39 40 41 42 43 44 45 46 47 48 49 50

000
ASUS43 KLOT 020100
RWRIL

ILLINOIS REGIONAL WEATHER ROUNDUP
NATIONAL WEATHER SERVICE CHICAGO/ROMEOVILLE IL
700 PM CST SUN FEB 01 2015

NOTE: "FAIR" INDICATES FEW OR NO CLOUDS BELOW 12,000 FEET WITH NO
SIGNIFICANT WEATHER AND/OR OBSTRUCTIONS TO VISIBILITY.

* THESE STATIONS ARE NOT UNDER NWS QUALITY CONTROL. THEY ALSO MAY NOT
  REPORT WEATHER SUCH AS PRECIPITATION OR FOG.

ILZ001-002-007-009-015-016-024-020200-
NORTHWEST ILLINOIS

CITY           SKY/WX    TMP DP  RH WIND       PRES   REMARKS
MOLINE         LGT SNOW  16  11  80 N15G26    29.93R VSB 1   WCI   1
STERLING*        N/A    N/A N/A N/A MISG        N/A
$$

ILZ003-004-008-010-011-017-018-020200-
NORTH CENTRAL ILLINOIS

CITY           SKY/WX    TMP DP  RH WIND       PRES   REMARKS
ROCKFORD       SNOW      12   7  80 N31G37    29.90R VSB 1/2 WCI -10
$$

ILZ005-006-012>014-019>023-020200-
NORTHEAST ILLINOIS

CITY           SKY/WX    TMP DP  RH WIND       PRES   REMARKS
CHICAGO-OHARE  SNOW      21  19  92 NE20G32   29.80R VSB 1/2 WCI   6
CHICAGO-MIDWAY LGT SNOW  23  20  88 N22G31    29.78R VSB 3/4 WCI   8
AURORA         LGT SNOW  22  17  81 N25       29.78R VSB 3/4 WCI   5
WAUKEGAN       FOG       20  18  92 N20G30    29.84R VSB 1/4 WCI   4
DUPAGE AIRPORT LGT SNOW  22  18  85 NE24G33   29.78S VSB 1   WCI   5
WHEELING       FOG       21  19  92 NE20G32   29.84R VSB 1/2 WCI   6
NORTHERLY ISL    N/A     23  22  96 N29         N/A  WCI   6
$$

LMZ740>746-020200-
SOUTHERN LAKE MICHIGAN

STATION/POSITION SKY/WX   TEMP    WIND        PRES    VSBY  WAVE
                          AIR SEA DIR/SP/G                  HT/PER
                          (F)     (DEG/KT/KT) (MB)    (MI)  (FT/S)
WAUKEGAN HARBOR            22      30/ 36/ 43   N/A
HARRISON CRIB              22      30/ 32/ 37   N/A
BURNHAM HARBOR             23      30/ 26/ 31   N/A
CALUMET HARBOR             22      20/ 20/ 28   N/A
MICHIGAN CITY              20      20/ 29/ 34   N/A
$$

ILZ025>027-034>036-040-047-049-050-058-095>099-020200-
WEST-CENTRAL ILLINOIS

CITY           SKY/WX    TMP DP  RH WIND       PRES   REMARKS
QUINCY         LGT SNOW  21  17  84 N23       29.88R VSB 3/4 WCI   5
$$

ILZ028>032-037-038-041>044-048-051>054-059>061-020200-
CENTRAL ILLINOIS

CITY           SKY/WX    TMP DP  RH WIND       PRES   REMARKS
DECATUR        CLOUDY    30  27  88 N20G26    29.68R WCI  17
PEORIA         LGT SNOW  24  19  81 N14G22    29.80R WCI  12
SPRINGFIELD    CLOUDY    28  23  81 N17G29    29.76R WCI  16
TAYLORVILLE    NOT AVBL
$$

ILZ033-039-045-046-055>057-062-063-020200-
EAST-CENTRAL ILLINOIS

CITY           SKY/WX    TMP DP  RH WIND       PRES   REMARKS
CHAMPAIGN      LGT SNOW  30  27  88 N24G30    29.63R FOG     WCI  16
MATTOON        LGT SNOW  33  31  92 W14       29.63R FOG     WCI  23
$$

ILZ079-100>102-020200-
SOUTHWEST ILLINOIS

CITY           SKY/WX    TMP DP  RH WIND       PRES   REMARKS
ALTON          CLOUDY    34  34 100 W14       29.75  WCI  24
BELLEVILLE     LGT RAIN  37  36  99 NW10      29.73R WCI  29
CAHOKIA*       CLOUDY    37  33  85 NW12      29.76R WCI  29
$$

ILZ064>066-069>071-074>076-080>082-084>086-088>090-092>094-020200-
SOUTH-CENTRAL ILLINOIS

CITY           SKY/WX    TMP DP  RH WIND       PRES   REMARKS
CARBONDALE     LGT RAIN  42  38  85 W8        29.71R
MT. VERNON     CLOUDY    39  34  81 W7        29.69R WCI  34
$$

ILZ067-068-072-073-078-083-087-091-020200-
SOUTHEAST ILLINOIS

CITY           SKY/WX    TMP DP  RH WIND       PRES   REMARKS
LAWRENCEVILLE  CLOUDY    40  40 100 W14       29.65R
$$

ABBREVIATIONS USED IN REMARKS
   TC - TEMPERATURE IN CELSIUS
  WCI - WIND CHILL INDEX
   HX - HEAT INDEX
  VSB - VISIBILITY
$$




USA.gov is the U.S. government's official web portal to all federal, state and local government web resources and services.